DW9234 Weather Reports


Display with metric or nautical units.
time (UTC)temp
F
wind
direction
speed
MPH
gust
MPH
rain 1hr
in
rain 24hr
in
rain mn
in
humidity
%
barometer
mb
20260901192005 91 243 0.0 2.0 0.00 0.00 0.00 56 1015.6
20260901191004 90 262 1.0 6.0 0.00 0.00 0.00 56 1015.7
20260901190004 90 338 0.0 4.0 0.00 0.00 0.00 59 1015.8
20260901185005 90 177 0.0 4.0 0.00 0.00 0.00 58 1015.8
20260901184004 90 103 0.0 2.0 0.00 0.00 0.00 60 1015.6
20260901182004 89 298 0.0 2.0 0.00 0.00 0.00 63 1015.8
20260901181004 88 278 0.0 0.0 0.00 0.00 0.00 63 1015.8
20260901180005 87 265 0.0 2.0 0.00 0.00 0.00 66 1015.8
20260901175004 86 58 0.0 2.0 0.00 0.00 0.00 68 1015.9
20260901174006 85 216 0.0 0.0 0.00 0.00 0.00 69 1015.9
20260901173004 84 212 0.0 0.0 0.00 0.00 0.00 71 1016.2
20260901172004 83 207 0.0 0.0 0.00 0.00 0.00 72 1016.3
20260901171004 83 119 0.0 0.0 0.00 0.00 0.00 73 1016.3
20260901170005 83 72 0.0 0.0 0.00 0.00 0.00 75 1016.5
20260901165004 83 74 0.0 0.0 0.00 0.00 0.00 74 1016.7
20260901164004 83 74 0.0 0.0 0.00 0.00 0.00 74 1016.7
20260901161004 84 73 0.0 0.0 0.00 0.00 0.00 71 1016.9
20260901160004 85 73 0.0 0.0 0.00 0.00 0.00 69 1017.0
20260901155004 85 73 0.0 0.0 0.00 0.00 0.00 67 1017.0
20260901154004 85 70 0.0 0.0 0.00 0.00 0.00 67 1017.0
20260901153004 85 82 0.0 0.0 0.00 0.00 0.00 67 1017.0
20260901152005 84 196 0.0 1.0 0.00 0.00 0.00 68 1017.1
20260901151004 84 240 0.0 0.0 0.00 0.00 0.00 70 1017.2
20260901150005 82 259 0.0 4.0 0.00 0.00 0.00 71 1017.3
20260901145004 80 236 0.0 0.0 0.00 0.00 0.00 75 1017.3
20260901144004 80 220 0.0 4.0 0.00 0.00 0.00 76 1017.4
20260901143005 79 281 0.0 4.0 0.00 0.00 0.00 77 1017.4
20260901135004 78 238 0.0 0.0 0.00 0.00 0.00 85 1017.1
20260901134004 78 263 0.0 1.0 0.00 0.00 0.00 88 1017.0
20260901133004 77 272 0.0 4.0 0.00 0.00 0.00 89 1017.1
20260901132004 77 261 0.0 0.0 0.00 0.00 0.00 89 1017.3
20260901131005 76 265 0.0 2.0 0.00 0.00 0.00 89 1017.4
20260901125005 76 79 0.0 0.0 0.00 0.00 0.00 89 1017.6
20260901124004 75 78 0.0 0.0 0.00 0.00 0.00 89 1017.7
20260901123004 74 255 0.0 0.0 0.00 0.00 0.00 88 1017.6
20260901122004 74 189 0.0 0.0 0.00 0.00 0.00 87 1017.6
20260901120005 73 189 0.0 0.0 0.00 0.00 0.00 86 1017.7
20260901115004 73 190 0.0 0.0 0.00 0.00 0.00 85 1017.7
20260901114005 73 189 0.0 0.0 0.00 0.00 0.00 84 1017.7
20260901112005 73 189 0.0 0.0 0.00 0.00 0.00 82 1017.6
20260901111004 72 189 0.0 0.0 0.00 0.00 0.00 81 1017.8
20260901110005 72 189 0.0 0.0 0.00 0.00 0.00 81 1017.7
20260901105004 72 189 0.0 0.0 0.00 0.00 0.00 80 1017.7
20260901104004 72 189 0.0 0.0 0.00 0.00 0.00 80 1017.7
20260901103005 72 189 0.0 0.0 0.00 0.00 0.00 80 1017.4
20260901102004 72 189 0.0 0.0 0.00 0.00 0.00 79 1017.6
20260901101004 72 189 0.0 0.0 0.00 0.00 0.00 79 1017.5
20260901100005 72 189 0.0 0.0 0.00 0.00 0.00 79 1017.3
20260901095004 72 189 0.0 0.0 0.00 0.00 0.00 79 1017.4
20260901094004 72 189 0.0 0.0 0.00 0.00 0.00 78 1017.3
20260901092004 72 190 0.0 0.0 0.00 0.00 0.00 78 1017.7
20260901091005 72 190 0.0 0.0 0.00 0.00 0.00 78 1017.8
20260901090005 72 190 0.0 0.0 0.00 0.00 0.00 78 1017.8
20260901085004 72 190 0.0 0.0 0.00 0.00 0.00 78 1017.6
20260901083005 73 190 0.0 0.0 0.00 0.00 0.00 78 1017.8
20260901082004 73 190 0.0 0.0 0.00 0.00 0.00 78 1017.8
20260901081004 73 190 0.0 0.0 0.00 0.00 0.00 78 1017.7
20260901080004 73 190 0.0 0.0 0.00 0.00 0.00 78 1017.7
20260901075005 73 190 0.0 0.0 0.00 0.00 0.00 78 1017.7
20260901074004 73 192 0.0 0.0 0.00 0.00 0.00 78 1017.8
20260901073005 73 192 0.0 0.0 0.00 0.00 0.00 77 1017.8
20260901072005 73 196 0.0 0.0 0.00 0.00 0.00 77 1017.8
20260901071004 73 196 0.0 0.0 0.00 0.00 0.00 77 1017.8
20260901070004 73 196 0.0 0.0 0.00 0.00 0.00 77 1017.9
20260901065004 73 196 0.0 0.0 0.00 0.00 0.00 77 1018.1
20260901064004 73 196 0.0 0.0 0.00 0.00 0.00 76 1018.3
20260901063005 73 196 0.0 0.0 0.00 0.00 0.00 76 1018.2
20260901062004 73 196 0.0 0.0 0.00 0.00 0.00 76 1018.4
20260901061004 73 196 0.0 0.0 0.00 0.00 0.00 76 1018.4
20260901060004 73 196 0.0 0.0 0.00 0.00 0.00 76 1018.4
20260901055005 73 196 0.0 0.0 0.00 0.00 0.00 76 1018.4
20260901053005 73 196 0.0 0.0 0.00 0.00 0.00 76 1018.8
20260901052005 73 196 0.0 0.0 0.00 0.00 0.00 76 1018.7
20260901050005 73 196 0.0 0.0 0.00 0.00 0.00 75 1019.1
20260901043005 73 196 0.0 0.0 0.00 0.00 0.00 75 1019.4
20260901042004 73 196 0.0 0.0 0.00 0.00 0.00 75 1019.1
20260901041004 73 196 0.0 0.0 0.00 0.00 0.00 75 1019.3
20260901040004 73 196 0.0 0.0 0.00 0.00 0.10 75 1019.4
20260901034005 73 196 0.0 0.0 0.00 0.00 0.10 74 1019.5
20260901033004 73 196 0.0 0.0 0.00 0.00 0.10 74 1019.4
20260901032004 74 196 0.0 0.0 0.00 0.00 0.10 74 1019.5
20260901031004 74 196 0.0 0.0 0.00 0.00 0.10 74 1019.7
20260901030005 74 196 0.0 0.0 0.00 0.00 0.10 73 1019.5
20260901025004 74 196 0.0 0.0 0.00 0.00 0.10 73 1019.5
20260901024004 74 196 0.0 0.0 0.00 0.00 0.10 73 1019.4
20260901023005 74 196 0.0 0.0 0.00 0.00 0.10 72 1019.4
20260901022004 75 196 0.0 0.0 0.00 0.00 0.10 72 1019.5
20260901021004 75 196 0.0 0.0 0.00 0.00 0.10 72 1019.5
20260901020004 75 196 0.0 0.0 0.00 0.00 0.10 72 1019.5
20260901015004 75 196 0.0 0.0 0.00 0.00 0.10 72 1019.4
20260901014005 76 196 0.0 0.0 0.00 0.00 0.10 71 1019.4
20260901013004 76 196 0.0 0.0 0.00 0.00 0.10 71 1019.6
20260901012004 76 196 0.0 0.0 0.00 0.00 0.10 71 1019.4
20260901011004 76 196 0.0 0.0 0.00 0.00 0.10 71 1019.2
20260901005004 76 196 0.0 0.0 0.00 0.00 0.10 71 1019.1
20260901003004 77 196 0.0 0.0 0.00 0.00 0.10 70 1019.1
20260901002004 77 196 0.0 0.0 0.00 0.00 0.10 70 1019.1
20260901000005 78 196 0.0 0.0 0.00 0.00 0.10 70 1018.8
20260831235004 78 196 0.0 0.0 0.00 0.00 0.10 69 1018.9
20260831234004 78 196 0.0 0.0 0.00 0.00 0.10 69 1019.1
20260831233004 79 196 0.0 0.0 0.00 0.00 0.10 68 1019.2
20260831232004 79 196 0.0 0.0 0.00 0.00 0.10 68 1019.1
20260831231005 80 196 0.0 0.0 0.00 0.00 0.10 69 1019.1
20260831225004 80 196 0.0 0.0 0.00 0.00 0.10 68 1019.3
20260831223005 81 205 0.0 0.0 0.00 0.00 0.10 67 1019.4
20260831222004 81 205 0.0 0.0 0.00 0.00 0.10 66 1019.5
20260831221004 81 205 0.0 0.0 0.00 0.00 0.10 66 1019.6
20260831220004 82 205 0.0 0.0 0.00 0.00 0.10 64 1019.6
20260831215004 82 205 0.0 0.0 0.00 0.00 0.10 63 1019.6
20260831214004 82 179 0.0 0.0 0.00 0.00 0.10 64 1019.7
20260831212004 82 198 0.0 0.0 0.00 0.00 0.10 63 1019.7
20260831210004 82 198 0.0 0.0 0.00 0.00 0.10 63 1020.1
20260831204004 83 198 0.0 0.0 0.00 0.00 0.10 59 1020.0
20260831203005 82 202 0.0 0.0 0.00 0.00 0.10 61 1020.0
20260831202004 82 157 0.0 0.0 0.00 0.00 0.10 60 1020.1
20260831200004 82 155 0.0 0.0 0.00 0.00 0.10 62 1020.2
20260831195004 82 155 0.0 0.0 0.00 0.00 0.10 59 1020.2
20260831194004 83 155 0.0 0.0 0.00 0.00 0.10 62 1020.4
20260831193004 83 155 0.0 0.0 0.00 0.00 0.10 60 1020.3